Home   Weather   Sendai   Past weeks

Flag for Japan Past Weather in Sendai, Japan — Yesterday and Last 2 Weeks

Now
72 °F

Passing clouds.


Feels Like: 69 °F
Forecast: 67 / 74 °F
Wind: 2 mph from North

Location: Sendai Airport

Current Time: Sep 26, 2016 at 4:13:06 AM

Latest Report: Sep 25, 2016 at 9:00 PM


Visibility: N/A

Pressure: 30.07 "Hg

Humidity: 88%

Dew Point: 68 °F

Location of SendaiLocation

Past Weather in Sendai — Graph

°F

Sendai Temperature Yesterday

Maximum temperature yesterday: 77 °F (at 11:00 AM)
Minimum temperature yesterday: 66 °F (at 6:00 AM)
Average temperature yesterday: 73 °F

High & Low Weather Summary for the Past Weeks

 TemperatureHumidityPressure
High79 °F (Sep 15, 11:00 AM)100% (Sep 24, 5:45 AM)30.21 "Hg (Sep 24, 5:45 AM)
Low61 °F (Sep 20, 6:00 AM)49% (Sep 21, 10:00 AM)29.77 "Hg (Sep 18, 1:00 PM)
Average70 °F83%30.01 "Hg
* Reported Sep 10 9:00 PM — Sep 25 9:00 PM, Sendai, Weather by CustomWeather, © 2016

Note: Actual official high and low records may vary slightly from our data, if they occured in-between our weather recording intervals... More about our weather records

Advertising

Sendai Weather History for the Previous 24 Hours

Scroll right to see more
 ConditionsComfort  
Time TempWeatherWind HumidityBarometerVisibility
9:00 PM
Sun, Sep 25
72 °FPassing clouds.2 mph88%30.07 "HgN/A
8:00 PM72 °FPartly cloudy.2 mph88%30.07 "HgN/A
7:00 PM72 °FPassing clouds.2 mph88%30.07 "HgN/A
6:00 PM72 °FPassing clouds.6 mph88%30.04 "HgN/A
5:00 PM73 °FPartly sunny.7 mph83%30.04 "HgN/A
4:00 PM73 °FPartly sunny.12 mph83%30.04 "HgN/A
3:00 PM75 °FPartly sunny.9 mph78%30.04 "HgN/A
2:00 PM75 °FPartly sunny.10 mph78%30.04 "HgN/A
1:00 PM75 °FPartly sunny.10 mph74%30.04 "HgN/A
12:00 PM75 °FPartly sunny.9 mph74%30.07 "HgN/A
11:00 AM77 °FPartly sunny.7 mph74%30.07 "HgN/A
10:00 AM75 °FPartly sunny.2 mph74%30.09 "HgN/A
9:00 AM72 °FPartly sunny.5 mph83%30.09 "HgN/A
8:00 AM70 °FPartly sunny.3 mph88%30.09 "HgN/A
7:00 AM68 °FFog.1 mph88%30.07 "HgN/A
6:00 AM66 °FBroken clouds.1 mph94%30.07 "HgN/A
Weather by CustomWeather, © 2016

See weather overviewHow to use our weather pages